WA4BPS Weather Reports


time (UTC)temp
F
wind
direction
speed
knots
gust
knots
rain 1hr
in
rain 24hr
in
rain mn
in
humidity
%
barometer
mb
20260504041340 57 285 7.0 15.6 0.00 0.00 0.00 53 1013.6
20260504041240 57 309 5.2 15.6 0.00 0.00 0.00 53 1013.6
20260504041139 57 301 7.8 15.6 0.00 0.00 0.00 53 1013.6
20260504041041 57 258 7.0 15.6 0.00 0.00 0.00 53 1013.6
20260504040938 57 263 6.1 14.8 0.00 0.00 0.00 53 1013.6
20260504040837 57 291 7.8 14.8 0.00 0.00 0.00 53 1013.6
20260504040736 57 302 7.0 14.8 0.00 0.00 0.00 53 1013.6
20260504040634 57 261 7.8 14.8 0.00 0.00 0.00 53 1013.6
20260504040531 57 260 6.1 14.8 0.00 0.00 0.00 53 1013.6
20260504040449 57 271 9.6 14.8 0.00 0.00 0.00 53 1013.6
20260504040331 57 282 8.7 15.6 0.00 0.00 0.00 53 1013.6
20260504040241 57 257 7.8 15.6 0.00 0.00 0.00 53 1013.6
20260504040151 57 278 7.0 15.6 0.00 0.00 0.00 53 1013.6
20260504040029 56 254 7.0 15.6 0.00 0.00 0.00 53 1013.6
20260504035947 56 278 9.6 15.6 0.00 0.00 0.00 53 1013.6
20260504035844 56 315 8.7 15.6 0.00 0.00 0.00 53 1013.8
20260504035803 56 294 8.7 15.6 0.00 0.00 0.00 54 1013.8
20260504035639 56 335 8.7 15.6 0.00 0.00 0.00 54 1013.8
20260504035557 56 256 9.6 15.6 0.00 0.00 0.00 53 1013.8
20260504035454 56 281 9.6 15.6 0.00 0.00 0.00 54 1013.8
20260504035336 56 285 9.6 15.6 0.00 0.00 0.00 54 1013.8
20260504035235 56 282 7.0 15.6 0.00 0.00 0.00 54 1013.8
20260504035132 56 285 9.6 14.8 0.00 0.00 0.00 54 1013.8
20260504035052 56 285 8.7 14.8 0.00 0.00 0.00 54 1013.8
20260504034929 56 298 8.7 17.4 0.00 0.00 0.00 54 1013.8
20260504034826 56 311 9.6 17.4 0.00 0.00 0.00 54 1013.8
20260504034725 56 292 9.6 17.4 0.00 0.00 0.00 54 1013.8
20260504034659 56 306 9.6 17.4 0.00 0.00 0.00 54 1013.8
20260504034536 56 302 8.7 17.4 0.00 0.00 0.00 54 1013.8
20260504034435 56 254 8.7 17.4 0.00 0.00 0.00 54 1013.8
20260504034333 56 287 7.0 17.4 0.00 0.00 0.00 54 1013.9
20260504034232 56 251 7.8 17.4 0.00 0.00 0.00 54 1013.9
20260504034130 56 311 9.6 17.4 0.00 0.00 0.00 55 1013.9
20260504034029 56 295 7.0 14.8 0.00 0.00 0.00 54 1013.9
20260504033931 56 287 7.8 15.6 0.00 0.00 0.00 54 1013.9
20260504033854 56 288 9.6 15.6 0.00 0.00 0.00 54 1013.9
20260504033751 56 278 8.7 15.6 0.00 0.00 0.00 55 1013.9
20260504033629 56 280 7.0 15.6 0.00 0.00 0.00 55 1013.9
20260504033527 56 284 9.6 15.6 0.00 0.00 0.00 55 1013.9
20260504033427 56 251 5.2 15.6 0.00 0.00 0.00 55 1013.9
20260504033326 56 288 5.2 15.6 0.00 0.00 0.00 55 1013.9
20260504033239 56 272 5.2 15.6 0.00 0.00 0.00 55 1013.9
20260504033149 56 294 10.4 15.6 0.00 0.00 0.00 55 1013.9
20260504033025 56 304 7.8 12.2 0.00 0.00 0.00 54 1013.9
20260504032925 56 292 8.7 12.2 0.00 0.00 0.00 54 1013.9
20260504032843 56 292 7.8 13.9 0.00 0.00 0.00 54 1014.4
20260504032741 56 289 8.7 13.9 0.00 0.00 0.00 55 1014.4
20260504032640 56 265 7.8 13.9 0.00 0.00 0.00 55 1014.4
20260504032538 56 277 6.1 13.9 0.00 0.00 0.00 54 1014.4
20260504032501 56 254 7.0 13.9 0.00 0.00 0.00 54 1014.4
20260504032337 56 322 7.0 13.9 0.00 0.00 0.00 54 1014.4
20260504032235 55 272 7.0 13.9 0.00 0.00 0.00 55 1014.4
20260504032133 55 281 7.0 13.9 0.00 0.00 0.00 54 1014.4
20260504032054 55 281 7.8 13.9 0.00 0.00 0.00 54 1014.4
20260504031933 55 302 6.1 13.9 0.00 0.00 0.00 54 1014.4
20260504031831 55 328 8.7 13.9 0.00 0.00 0.00 54 1014.4
20260504031743 55 288 4.3 13.9 0.00 0.00 0.00 54 1014.4
20260504031652 55 320 7.0 13.9 0.00 0.00 0.00 54 1014.4
20260504031530 55 298 7.0 13.9 0.00 0.00 0.00 54 1014.4
20260504031428 55 301 7.0 12.2 0.00 0.00 0.00 55 1014.4
20260504031326 55 261 5.2 12.2 0.00 0.00 0.00 54 1014.7
20260504031229 55 315 4.3 12.2 0.00 0.00 0.00 54 1014.7
20260504031128 55 280 5.2 12.2 0.00 0.00 0.00 55 1014.7
20260504031030 55 296 5.2 12.2 0.00 0.00 0.00 55 1014.7
20260504030929 55 299 8.7 12.2 0.00 0.00 0.00 55 1014.7
20260504030849 55 318 8.7 12.2 0.00 0.00 0.00 54 1014.7
20260504030727 55 306 5.2 12.2 0.00 0.00 0.00 54 1014.7
20260504030625 55 260 8.7 12.2 0.00 0.00 0.00 55 1014.7
20260504030523 55 316 5.2 12.2 0.00 0.00 0.00 55 1014.7
20260504030443 55 315 7.0 12.2 0.00 0.00 0.00 55 1014.7
20260504030325 55 257 7.0 12.2 0.00 0.00 0.00 55 1014.7
20260504030236 55 309 5.2 12.2 0.00 0.00 0.00 55 1014.7
20260504030147 55 313 8.7 12.2 0.00 0.00 0.00 55 1014.7
20260504030023 55 287 5.2 10.4 0.00 0.00 0.00 55 1014.7
20260504025925 55 226 6.1 10.4 0.00 0.00 0.00 54 1014.7
20260504025843 55 274 7.0 10.4 0.00 0.00 0.00 54 1014.7
20260504025741 55 318 7.0 10.4 0.00 0.00 0.00 55 1014.7
20260504025639 55 284 7.0 10.4 0.00 0.00 0.00 55 1014.7
20260504025601 55 268 5.2 10.4 0.00 0.00 0.00 55 1014.7
20260504025439 55 247 5.2 10.4 0.00 0.00 0.00 55 1014.7
20260504025337 55 315 5.2 7.8 0.00 0.00 0.00 56 1014.7
20260504025235 55 294 4.3 7.8 0.00 0.00 0.00 56 1014.7
20260504025134 55 305 5.2 7.8 0.00 0.00 0.00 56 1014.7
20260504025032 55 323 4.3 7.8 0.00 0.00 0.00 56 1014.7
20260504024930 55 260 6.1 7.8 0.00 0.00 0.00 56 1014.7
20260504024833 55 315 6.1 7.8 0.00 0.00 0.00 56 1014.7
20260504024752 55 287 5.2 7.8 0.00 0.00 0.00 56 1014.7
20260504024702 55 301 4.3 7.8 0.00 0.00 0.00 56 1014.7
20260504024540 55 243 5.2 7.8 0.00 0.00 0.00 56 1014.7
20260504024439 55 288 4.3 7.8 0.00 0.00 0.00 56 1014.7
20260504024338 55 315 5.2 7.8 0.00 0.00 0.00 56 1014.7
20260504024236 55 298 5.2 7.8 0.00 0.00 0.00 56 1014.7
20260504024139 55 301 5.2 7.8 0.00 0.00 0.00 56 1014.7
20260504024038 55 329 5.2 7.8 0.00 0.00 0.00 56 1014.7
20260504023938 55 268 3.5 7.0 0.00 0.00 0.00 56 1014.7
20260504023836 55 260 5.2 7.0 0.00 0.00 0.00 56 1014.7
20260504023735 55 280 5.2 7.0 0.00 0.00 0.00 56 1014.7
20260504023652 55 265 4.3 7.0 0.00 0.00 0.00 55 1014.7
20260504023530 55 326 4.3 7.0 0.00 0.00 0.00 56 1014.7
20260504023433 55 304 5.2 7.0 0.00 0.00 0.00 56 1014.7
20260504023331 55 312 5.2 7.0 0.00 0.00 0.00 56 1014.7
20260504023242 55 329 3.5 7.0 0.00 0.00 0.00 56 1014.7
20260504023152 55 332 5.2 7.0 0.00 0.00 0.00 56 1014.7
20260504023027 55 285 4.3 7.0 0.00 0.00 0.00 56 1014.7
20260504022926 55 306 3.5 7.0 0.00 0.00 0.00 56 1014.7
20260504022824 55 319 3.5 7.0 0.00 0.00 0.00 56 1014.6
20260504022730 55 294 4.3 7.0 0.00 0.00 0.00 56 1014.6
20260504022649 55 267 3.5 7.0 0.00 0.00 0.00 56 1014.6
20260504022546 55 330 3.5 7.0 0.00 0.00 0.00 56 1014.6
20260504022443 55 243 3.5 7.0 0.00 0.00 0.00 56 1014.6
20260504022341 55 332 5.2 7.0 0.00 0.00 0.00 56 1014.6
20260504022239 55 323 4.3 7.0 0.00 0.00 0.00 58 1014.6
20260504022137 55 325 4.3 7.0 0.00 0.00 0.00 59 1014.6
20260504022056 55 328 4.3 7.0 0.00 0.00 0.00 58 1014.6
20260504021932 55 288 4.3 7.0 0.00 0.00 0.00 58 1014.6
20260504021835 55 237 3.5 7.0 0.00 0.00 0.00 59 1014.6
20260504021734 55 263 5.2 7.0 0.00 0.00 0.00 59 1014.6
20260504021703 55 302 3.5 7.0 0.00 0.00 0.00 59 1014.6
20260504021542 55 332 2.6 6.1 0.00 0.00 0.00 59 1014.6
20260504021502 55 260 2.6 6.1 0.00 0.00 0.00 59 1014.6
20260504021339 55 251 3.5 6.1 0.00 0.00 0.00 59 1014.5
20260504021257 55 332 4.3 7.0 0.00 0.00 0.00 59 1014.5
20260504021134 55 330 3.5 7.0 0.00 0.00 0.00 59 1014.5
20260504021057 55 326 2.6 7.0 0.00 0.00 0.00 59 1014.5
20260504020954 55 330 4.3 7.0 0.00 0.00 0.00 59 1014.5
20260504020830 55 333 3.5 7.0 0.00 0.00 0.00 59 1014.5
20260504020729 55 261 4.3 7.0 0.00 0.00 0.00 59 1014.5
20260504020629 55 322 3.5 7.0 0.00 0.00 0.00 60 1014.5
20260504020547 55 330 4.3 7.0 0.00 0.00 0.00 59 1014.5
20260504020504 55 263 4.3 7.0 0.00 0.00 0.00 59 1014.5
20260504020342 55 254 4.3 6.1 0.00 0.00 0.00 59 1014.5
20260504020225 55 332 2.6 6.1 0.00 0.00 0.00 59 1014.5
20260504020155 55 258 1.7 5.2 0.00 0.00 0.00 59 1014.5
20260504020032 55 329 1.7 5.2 0.00 0.00 0.00 58 1014.5
20260504015949 55 306 2.6 5.2 0.00 0.00 0.00 57 1014.5
20260504015828 55 330 3.5 5.2 0.00 0.00 0.00 56 1014.3
20260504015725 55 319 2.6 5.2 0.00 0.00 0.00 56 1014.3
20260504015624 55 330 2.6 5.2 0.00 0.00 0.00 56 1014.3
20260504015526 55 329 2.6 5.2 0.00 0.00 0.00 56 1014.3
20260504015445 55 270 2.6 5.2 0.00 0.00 0.00 55 1014.3
20260504015404 55 332 1.7 5.2 0.00 0.00 0.00 55 1014.3
20260504015301 55 315 0.9 5.2 0.00 0.00 0.00 56 1014.3
20260504015138 55 332 1.7 6.1 0.00 0.00 0.00 57 1014.3
20260504015036 55 332 1.7 6.1 0.00 0.00 0.00 57 1014.3
20260504014954 55 330 1.7 6.1 0.00 0.00 0.00 57 1014.3
20260504014832 55 308 3.5 6.1 0.00 0.00 0.00 57 1014.3
20260504014730 55 265 2.6 6.1 0.00 0.00 0.00 58 1014.3
20260504014704 55 333 3.5 6.1 0.00 0.00 0.00 57 1014.3
20260504014542 55 309 3.5 6.1 0.00 0.00 0.00 59 1014.3
20260504014500 55 256 3.5 6.1 0.00 0.00 0.00 59 1014.3
20260504014358 55 329 4.3 6.1 0.00 0.00 0.00 59 1014.1
20260504014236 55 284 2.6 6.1 0.00 0.00 0.00 59 1014.1
20260504014133 55 244 1.7 6.1 0.00 0.00 0.00 59 1014.1
20260504014052 55 299 3.5 6.1 0.00 0.00 0.00 58 1014.1
20260504013929 55 270 3.5 6.1 0.00 0.00 0.00 58 1014.1
20260504013830 55 320 4.3 6.1 0.00 0.00 0.00 57 1014.1
20260504013730 55 294 3.5 6.1 0.00 0.00 0.00 57 1014.1
20260504013628 55 330 2.6 6.1 0.00 0.00 0.00 57 1014.1
20260504013525 55 261 2.6 6.1 0.00 0.00 0.00 56 1014.1
20260504013424 55 296 3.5 6.1 0.00 0.00 0.00 56 1014.1
20260504013343 55 332 3.5 6.1 0.00 0.00 0.00 56 1014.1
20260504013231 55 330 1.7 6.1 0.00 0.00 0.00 56 1014.1
20260504013146 55 332 1.7 6.1 0.00 0.00 0.00 56 1014.1
20260504013025 55 326 4.3 6.1 0.00 0.00 0.00 56 1014.1
20260504012924 55 333 2.6 5.2 0.00 0.00 0.00 56 1014.1
20260504012824 55 326 2.6 5.2 0.00 0.00 0.00 56 1013.9
20260504012726 56 329 0.9 5.2 0.00 0.00 0.00 57 1013.9
20260504012626 56 280 2.6 5.2 0.00 0.00 0.00 57 1013.9
20260504012544 56 316 3.5 5.2 0.00 0.00 0.00 58 1013.9
20260504012426 56 333 3.5 5.2 0.00 0.00 0.00 58 1013.9
20260504012344 56 337 3.5 5.2 0.00 0.00 0.00 57 1013.9
20260504012305 56 333 3.5 6.1 0.00 0.00 0.00 57 1013.9
20260504012142 56 337 3.5 6.1 0.00 0.00 0.00 57 1013.9
20260504012100 56 322 3.5 6.1 0.00 0.00 0.00 56 1013.9
20260504011937 56 315 2.6 6.1 0.00 0.00 0.00 56 1013.9
20260504011856 56 333 3.5 6.1 0.00 0.00 0.00 56 1013.9
20260504011732 56 330 4.3 7.0 0.00 0.00 0.00 56 1013.9
20260504011703 56 311 4.3 7.0 0.00 0.00 0.00 56 1013.9
20260504011604 56 333 3.5 7.0 0.00 0.00 0.00 56 1013.9
20260504011442 56 332 3.5 7.0 0.00 0.00 0.00 56 1013.9
20260504011342 56 301 3.5 7.0 0.00 0.00 0.00 56 1013.2
20260504011241 56 320 2.6 7.0 0.00 0.00 0.00 55 1013.2
20260504011139 56 330 3.5 7.0 0.00 0.00 0.00 56 1013.2
20260504011038 56 329 2.6 7.0 0.00 0.00 0.00 56 1013.2
20260504010936 56 320 3.5 7.0 0.00 0.00 0.00 56 1013.2
20260504010838 57 333 3.5 7.0 0.00 0.00 0.00 54 1013.2
20260504010736 57 329 3.5 5.2 0.00 0.00 0.00 54 1013.2
20260504010634 57 332 2.6 5.2 0.00 0.00 0.00 54 1013.2
20260504010532 57 326 2.6 5.2 0.00 0.00 0.00 53 1013.2
20260504010430 57 333 2.6 5.2 0.00 0.00 0.00 53 1013.2
20260504010330 57 329 1.7 4.3 0.00 0.00 0.00 53 1013.2
20260504010228 57 325 0.9 4.3 0.00 0.00 0.00 54 1013.2
20260504010202 57 332 1.7 4.3 0.00 0.00 0.00 54 1013.2
20260504010039 57 332 1.7 4.3 0.00 0.00 0.00 53 1013.2
20260504005937 57 333 2.6 4.3 0.00 0.00 0.00 53 1013.2
20260504005835 57 326 1.7 3.5 0.00 0.00 0.00 51 1014.0
20260504005733 57 304 2.6 3.5 0.00 0.00 0.00 50 1014.0
20260504005630 57 333 1.7 3.5 0.00 0.00 0.00 51 1014.0
20260504005529 57 330 1.7 2.6 0.00 0.00 0.00 50 1014.0
20260504005431 58 333 1.7 2.6 0.00 0.00 0.00 50 1014.0
20260504005351 58 330 1.7 2.6 0.00 0.00 0.00 50 1014.0
20260504005250 58 333 2.6 2.6 0.00 0.00 0.00 50 1014.0
20260504005127 58 335 0.9 2.6 0.00 0.00 0.00 50 1014.0
20260504005025 58 318 0.0 2.6 0.00 0.00 0.00 50 1014.0
20260504004943 58 332 0.0 2.6 0.00 0.00 0.00 50 1014.0
20260504004843 58 325 0.9 2.6 0.00 0.00 0.00 51 1014.0
20260504004725 58 329 1.7 4.3 0.00 0.00 0.00 51 1014.0
20260504004655 58 325 0.9 5.2 0.00 0.00 0.00 51 1014.0
20260504004532 58 330 0.9 5.2 0.00 0.00 0.00 50 1014.0
20260504004430 58 328 0.0 5.2 0.00 0.00 0.00 50 1014.0
20260504004330 58 325 0.0 5.2 0.00 0.00 0.00 49 1013.9
20260504004228 58 323 0.9 5.2 0.00 0.00 0.00 49 1013.9
20260504004126 58 332 0.0 5.2 0.00 0.00 0.00 49 1013.9
20260504004029 58 309 0.0 5.2 0.00 0.00 0.00 48 1013.9
20260504003927 58 330 0.9 5.2 0.00 0.00 0.00 48 1013.9
20260504003826 59 323 0.9 5.2 0.00 0.00 0.00 48 1013.9
20260504003727 59 318 0.9 2.6 0.00 0.00 0.00 48 1013.9
20260504003625 59 319 0.9 2.6 0.00 0.00 0.00 47 1013.9
20260504003544 59 318 0.9 2.6 0.00 0.00 0.00 47 1013.9
20260504003441 59 323 0.9 2.6 0.00 0.00 0.00 47 1013.9
20260504003345 59 330 0.9 2.6 0.00 0.00 0.00 47 1013.9
20260504003243 59 320 0.9 2.6 0.00 0.00 0.00 46 1013.9
20260504003214 59 313 0.9 2.6 0.00 0.00 0.00 46 1013.9
20260504003028 59 332 0.9 2.6 0.00 0.00 0.00 47 1013.9
20260504002927 59 329 0.0 2.6 0.00 0.00 0.00 46 1013.9
20260504002825 59 312 0.0 5.2 0.00 0.00 0.00 47 1013.9
20260504002743 59 316 0.9 5.2 0.00 0.00 0.00 46 1013.9
20260504002642 59 330 1.7 7.0 0.00 0.00 0.00 46 1013.9
20260504002601 59 332 1.7 7.0 0.00 0.00 0.00 47 1013.9
20260504002437 59 332 0.9 7.0 0.00 0.00 0.00 47 1013.9
20260504002339 60 329 0.9 7.0 0.00 0.00 0.00 47 1013.9
20260504002237 60 330 0.9 7.0 0.00 0.00 0.00 47 1013.9
20260504002136 60 332 1.7 7.0 0.00 0.00 0.00 46 1013.9
20260504002054 60 329 1.7 7.0 0.00 0.00 0.00 46 1013.9
20260504001932 60 328 0.0 7.0 0.00 0.00 0.00 46 1013.9
20260504001829 60 325 2.6 7.0 0.00 0.00 0.00 46 1013.9
20260504001737 60 322 3.5 7.0 0.00 0.00 0.00 46 1013.9
20260504001647 60 318 2.6 9.6 0.00 0.00 0.00 46 1013.9
20260504001548 60 330 2.6 9.6 0.00 0.00 0.00 46 1013.9
20260504001425 60 322 2.6 9.6 0.00 0.00 0.00 45 1013.9
20260504001344 60 333 4.3 9.6 0.00 0.00 0.00 45 1014.1
20260504001303 60 319 3.5 9.6 0.00 0.00 0.00 45 1014.1
20260504001139 60 316 2.6 9.6 0.00 0.00 0.00 46 1014.1
20260504001038 60 328 1.7 9.6 0.00 0.00 0.00 46 1014.1
20260504000936 60 326 2.6 9.6 0.00 0.00 0.00 46 1014.1
20260504000834 60 320 3.5 9.6 0.00 0.00 0.00 46 1014.1
20260504000736 60 312 3.5 7.8 0.00 0.00 0.00 46 1014.1
20260504000635 60 318 3.5 6.1 0.00 0.00 0.00 45 1014.1
20260504000533 60 318 3.5 5.2 0.00 0.00 0.00 45 1014.1
20260504000431 60 312 1.7 5.2 0.00 0.00 0.00 45 1014.1
20260504000329 60 326 2.6 5.2 0.00 0.00 0.00 44 1014.1
20260504000241 60 320 1.7 5.2 0.00 0.00 0.00 44 1014.1
20260504000151 60 325 1.7 8.7 0.00 0.00 0.00 44 1014.1
20260504000031 60 323 0.9 8.7 0.00 0.00 0.00 44 1014.1
20260503235949 60 325 0.9 8.7 0.00 0.00 0.00 44 1014.1
20260503235827 60 332 3.5 8.7 0.00 0.00 0.00 44 1014.2
20260503235726 60 326 2.6 8.7 0.00 0.00 0.00 44 1014.2
20260503235645 60 332 1.7 10.4 0.00 0.00 0.00 44 1014.2
20260503235604 60 315 1.7 10.4 0.00 0.00 0.00 43 1014.2
20260503235441 60 325 2.6 10.4 0.00 0.00 0.00 42 1014.2
20260503235326 60 313 4.3 10.4 0.00 0.00 0.00 41 1014.2
20260503235223 60 332 2.6 10.4 0.00 0.00 0.00 41 1014.2
20260503235142 61 318 2.6 10.4 0.00 0.00 0.00 41 1014.2
20260503235040 61 323 2.6 10.4 0.00 0.00 0.00 42 1014.2
20260503234939 61 322 0.9 10.4 0.00 0.00 0.00 42 1014.2
20260503234836 61 319 4.3 10.4 0.00 0.00 0.00 42 1014.2
20260503234734 61 322 7.0 8.7 0.00 0.00 0.00 44 1014.2
20260503234704 61 322 6.1 8.7 0.00 0.00 0.00 44 1014.2
20260503234602 61 325 2.6 10.4 0.00 0.00 0.00 45 1014.2
20260503234441 61 322 1.7 10.4 0.00 0.00 0.00 45 1014.2
20260503234339 61 289 1.7 10.4 0.00 0.00 0.00 45 1014.2
20260503234238 61 322 0.9 10.4 0.00 0.00 0.00 45 1014.2
20260503234136 61 301 2.6 10.4 0.00 0.00 0.00 46 1014.2
20260503234034 61 320 3.5 10.4 0.00 0.00 0.00 45 1014.2
20260503233932 61 311 2.6 10.4 0.00 0.00 0.00 46 1014.2
20260503233831 61 316 2.6 10.4 0.00 0.00 0.00 45 1014.2
20260503233753 61 319 5.2 10.4 0.00 0.00 0.00 44 1014.2
20260503233631 61 326 5.2 10.4 0.00 0.00 0.00 45 1014.2
20260503233529 61 330 3.5 10.4 0.00 0.00 0.00 46 1014.2
20260503233427 61 333 4.3 10.4 0.00 0.00 0.00 45 1014.2
20260503233326 61 328 1.7 7.8 0.00 0.00 0.00 46 1014.2
20260503233225 61 313 2.6 7.8 0.00 0.00 0.00 46 1014.2
20260503233157 61 323 3.5 7.8 0.00 0.00 0.00 46 1014.2
20260503233038 61 320 6.1 8.7 0.00 0.00 0.00 46 1014.2
20260503232936 61 329 4.3 8.7 0.00 0.00 0.00 46 1014.2
20260503232835 61 328 3.5 8.7 0.00 0.00 0.00 45 1014.3
20260503232732 61 332 4.3 8.7 0.00 0.00 0.00 45 1014.3
20260503232630 61 320 4.3 8.7 0.00 0.00 0.00 45 1014.3
20260503232528 61 326 0.9 8.7 0.00 0.00 0.00 44 1014.3
20260503232427 61 309 0.9 8.7 0.00 0.00 0.00 44 1014.3
20260503232329 61 277 1.7 8.7 0.00 0.00 0.00 44 1014.3
20260503232227 61 312 4.3 8.7 0.00 0.00 0.00 44 1014.3
20260503232126 61 299 2.6 7.8 0.00 0.00 0.00 43 1014.3
20260503232025 61 315 3.5 10.4 0.00 0.00 0.00 44 1014.3
20260503231925 61 320 4.3 10.4 0.00 0.00 0.00 44 1014.3
20260503231842 61 306 4.3 10.4 0.00 0.00 0.00 44 1014.3
20260503231736 61 315 4.3 10.4 0.00 0.00 0.00 44 1014.3
20260503231645 61 316 1.7 10.4 0.00 0.00 0.00 43 1014.3
20260503231524 61 308 4.3 10.4 0.00 0.00 0.00 43 1014.3
20260503231443 61 304 2.6 10.4 0.00 0.00 0.00 43 1014.3
20260503231340 61 296 0.9 10.4 0.00 0.00 0.00 43 1014.3
20260503231238 61 332 5.2 10.4 0.00 0.00 0.00 42 1014.3
20260503231137 61 322 3.5 8.7 0.00 0.00 0.00 43 1014.3
20260503231057 61 306 5.2 8.7 0.00 0.00 0.00 42 1014.3
20260503230955 61 298 4.3 8.7 0.00 0.00 0.00 41 1014.3
20260503230836 61 329 4.3 8.7 0.00 0.00 0.00 43 1014.3
20260503230754 61 319 6.1 8.7 0.00 0.00 0.00 42 1014.3
20260503230631 61 322 4.3 8.7 0.00 0.00 0.00 42 1014.3
20260503230531 61 323 4.3 8.7 0.00 0.00 0.00 42 1014.3
20260503230430 62 315 2.6 8.7 0.00 0.00 0.00 42 1014.3
20260503230349 62 318 4.3 8.7 0.00 0.00 0.00 41 1014.3
20260503230225 62 319 1.7 8.7 0.00 0.00 0.00 42 1014.3
20260503230158 62 322 1.7 11.3 0.00 0.00 0.00 42 1014.3
20260503230041 62 326 2.6 11.3 0.00 0.00 0.00 42 1014.3
20260503225939 62 304 0.9 11.3 0.00 0.00 0.00 43 1014.3
20260503225837 62 316 3.5 11.3 0.00 0.00 0.00 43 1014.3
20260503225736 62 285 3.5 11.3 0.00 0.00 0.00 43 1014.3
20260503225634 62 277 2.6 11.3 0.00 0.00 0.00 42 1014.3
20260503225533 62 295 4.3 11.3 0.00 0.00 0.00 42 1014.3
20260503225435 62 289 5.2 11.3 0.00 0.00 0.00 43 1014.3
20260503225333 62 315 7.8 11.3 0.00 0.00 0.00 45 1014.3
20260503225233 62 322 6.1 10.4 0.00 0.00 0.00 44 1014.3
20260503225131 62 306 6.1 11.3 0.00 0.00 0.00 44 1014.3
20260503225050 62 316 6.1 11.3 0.00 0.00 0.00 42 1014.3
20260503224927 62 318 0.9 11.3 0.00 0.00 0.00 41 1014.3
20260503224846 62 315 1.7 11.3 0.00 0.00 0.00 41 1014.3
20260503224735 62 319 3.5 11.3 0.00 0.00 0.00 41 1014.3
20260503224648 62 319 5.2 11.3 0.00 0.00 0.00 42 1014.3
20260503224545 62 320 2.6 11.3 0.00 0.00 0.00 41 1014.3
20260503224504 62 315 4.3 11.3 0.00 0.00 0.00 40 1014.3
20260503224342 62 326 7.0 11.3 0.00 0.00 0.00 40 1014.4
20260503224242 62 316 6.1 11.3 0.00 0.00 0.00 40 1014.4
20260503224139 62 320 5.2 11.3 0.00 0.00 0.00 40 1014.4
20260503224058 62 322 4.3 11.3 0.00 0.00 0.00 40 1014.4
20260503223935 62 323 3.5 11.3 0.00 0.00 0.00 39 1014.4
20260503223840 62 315 5.2 11.3 0.00 0.00 0.00 39 1014.4
20260503223758 62 319 4.3 11.3 0.00 0.00 0.00 42 1014.4
20260503223636 62 301 4.3 11.3 0.00 0.00 0.00 42 1014.4
20260503223554 62 333 6.1 11.3 0.00 0.00 0.00 42 1014.4
20260503223431 62 316 4.3 10.4 0.00 0.00 0.00 42 1014.4
20260503223328 62 326 4.3 10.4 0.00 0.00 0.00 41 1014.4
20260503223238 62 305 3.5 10.4 0.00 0.00 0.00 41 1014.4
20260503223149 62 287 3.5 10.4 0.00 0.00 0.00 41 1014.4
20260503223031 62 322 2.6 10.4 0.00 0.00 0.00 40 1014.4
20260503222929 62 323 2.6 10.4 0.00 0.00 0.00 42 1014.4
20260503222827 62 305 4.3 10.4 0.00 0.00 0.00 42 1014.5
20260503222725 62 328 2.6 10.4 0.00 0.00 0.00 41 1014.5
20260503222624 62 296 4.3 10.4 0.00 0.00 0.00 41 1014.5
20260503222542 62 315 0.9 8.7 0.00 0.00 0.00 41 1014.5
20260503222439 62 325 2.6 8.7 0.00 0.00 0.00 41 1014.5
20260503222341 62 322 3.5 8.7 0.00 0.00 0.00 41 1014.5
20260503222240 62 287 3.5 8.7 0.00 0.00 0.00 41 1014.5
20260503222137 62 284 0.0 8.7 0.00 0.00 0.00 40 1014.5
20260503222057 62 323 1.7 8.7 0.00 0.00 0.00 42 1014.5
20260503221934 62 326 4.3 8.7 0.00 0.00 0.00 42 1014.5
20260503221852 62 326 5.2 8.7 0.00 0.00 0.00 43 1014.5
20260503221733 62 288 6.1 8.7 0.00 0.00 0.00 41 1014.5
20260503221704 62 329 5.2 8.7 0.00 0.00 0.00 42 1014.5
20260503221546 62 309 2.6 8.7 0.00 0.00 0.00 41 1014.5
20260503221444 62 304 0.9 9.6 0.00 0.00 0.00 41 1014.5
20260503221343 62 328 0.9 9.6 0.00 0.00 0.00 41 1014.7
20260503221241 62 328 2.6 9.6 0.00 0.00 0.00 41 1014.7
20260503221140 62 318 4.3 9.6 0.00 0.00 0.00 41 1014.7
20260503221038 62 322 2.6 9.6 0.00 0.00 0.00 42 1014.7
20260503220936 62 323 2.6 9.6 0.00 0.00 0.00 42 1014.7
20260503220839 62 316 5.2 9.6 0.00 0.00 0.00 42 1014.7
20260503220758 62 319 4.3 9.6 0.00 0.00 0.00 41 1014.7
20260503220635 62 330 3.5 10.4 0.00 0.00 0.00 39 1014.7
20260503220534 62 316 3.5 11.3 0.00 0.00 0.00 40 1014.7
20260503220452 62 318 4.3 12.2 0.00 0.00 0.00 41 1014.7
20260503220351 62 332 5.2 12.2 0.00 0.00 0.00 41 1014.7
20260503220240 62 301 5.2 12.2 0.00 0.00 0.00 41 1014.7
20260503220152 62 330 4.3 12.2 0.00 0.00 0.00 41 1014.7
20260503220028 62 325 2.6 12.2 0.00 0.00 0.00 39 1014.7
20260503215931 62 318 5.2 12.2 0.00 0.00 0.00 39 1014.7
20260503215829 62 319 5.2 12.2 0.00 0.00 0.00 39 1014.8
20260503215728 62 312 7.0 12.2 0.00 0.00 0.00 40 1014.8
20260503215647 62 311 7.0 12.2 0.00 0.00 0.00 40 1014.8
20260503215544 62 329 6.1 12.2 0.00 0.00 0.00 42 1014.8
20260503215443 62 289 4.3 12.2 0.00 0.00 0.00 44 1014.8
20260503215342 62 322 5.2 12.2 0.00 0.00 0.00 43 1014.8
20260503215243 62 325 3.5 12.2 0.00 0.00 0.00 42 1014.8
20260503215142 62 319 0.9 12.2 0.00 0.00 0.00 41 1014.8
20260503215100 62 316 2.6 12.2 0.00 0.00 0.00 40 1014.8
20260503214937 62 298 3.5 12.2 0.00 0.00 0.00 42 1014.8
20260503214855 62 330 2.6 12.2 0.00 0.00 0.00 41 1014.8
20260503214734 62 332 4.3 12.2 0.00 0.00 0.00 40 1014.8
20260503214704 62 308 1.7 12.2 0.00 0.00 0.00 40 1014.8
20260503214601 62 330 1.7 12.2 0.00 0.00 0.00 40 1014.8
20260503214423 62 330 4.3 12.2 0.00 0.00 0.00 40 1014.8
20260503214324 62 328 5.2 12.2 0.00 0.00 0.00 39 1015.0
20260503214243 62 329 5.2 12.2 0.00 0.00 0.00 38 1015.0
20260503214141 62 320 2.6 10.4 0.00 0.00 0.00 40 1015.0
20260503214039 62 320 0.9 10.4 0.00 0.00 0.00 40 1015.0
20260503213939 62 311 1.7 10.4 0.00 0.00 0.00 40 1015.0
20260503213837 62 305 5.2 11.3 0.00 0.00 0.00 40 1015.0
20260503213736 62 318 5.2 11.3 0.00 0.00 0.00 41 1015.0
20260503213638 62 313 4.3 11.3 0.00 0.00 0.00 40 1015.0
20260503213557 62 320 1.7 11.3 0.00 0.00 0.00 38 1015.0
20260503213434 62 311 1.7 11.3 0.00 0.00 0.00 38 1015.0
20260503213331 62 325 4.3 11.3 0.00 0.00 0.00 40 1015.0
20260503213242 62 318 4.3 11.3 0.00 0.00 0.00 40 1015.0
20260503213152 62 332 5.2 11.3 0.00 0.00 0.00 41 1015.0
20260503213028 62 325 7.0 11.3 0.00 0.00 0.00 39 1015.0
20260503212931 62 333 7.8 11.3 0.00 0.00 0.00 41 1015.0
20260503212849 62 309 6.1 11.3 0.00 0.00 0.00 42 1015.2
20260503212744 62 316 4.3 11.3 0.00 0.00 0.00 41 1015.2
20260503212703 62 288 6.1 11.3 0.00 0.00 0.00 41 1015.2
20260503212542 62 318 5.2 11.3 0.00 0.00 0.00 40 1015.2
20260503212440 62 319 1.7 11.3 0.00 0.00 0.00 40 1015.2
20260503212338 62 328 1.7 11.3 0.00 0.00 0.00 41 1015.2
20260503212257 62 326 4.3 11.3 0.00 0.00 0.00 41 1015.2
20260503212134 62 318 3.5 11.3 0.00 0.00 0.00 41 1015.2
20260503212036 62 322 2.6 11.3 0.00 0.00 0.00 40 1015.2
20260503211934 62 322 4.3 11.3 0.00 0.00 0.00 39 1015.2
20260503211832 62 328 4.3 11.3 0.00 0.00 0.00 41 1015.2
20260503211742 62 329 7.0 11.3 0.00 0.00 0.00 42 1015.2
20260503211650 61 304 7.0 14.8 0.00 0.00 0.00 41 1015.2
20260503211528 61 323 4.3 14.8 0.00 0.00 0.00 41 1015.2
20260503211427 61 332 1.7 14.8 0.00 0.00 0.00 40 1015.2
20260503211329 61 330 1.7 14.8 0.00 0.00 0.00 39 1015.1
20260503211228 61 301 3.5 14.8 0.00 0.00 0.00 40 1015.1
20260503211126 62 318 7.0 14.8 0.00 0.00 0.00 39 1015.1
20260503211045 62 320 6.1 14.8 0.00 0.00 0.00 39 1015.1
20260503211004 62 328 5.2 14.8 0.00 0.00 0.00 40 1015.1
20260503210841 62 332 8.7 14.8 0.00 0.00 0.00 39 1015.1
20260503210739 62 318 9.6 14.8 0.00 0.00 0.00 41 1015.1
20260503210641 62 328 5.2 9.6 0.00 0.00 0.00 40 1015.1
20260503210539 62 294 4.3 12.2 0.00 0.00 0.00 40 1015.1
20260503210458 62 323 3.5 12.2 0.00 0.00 0.00 41 1015.1
20260503210416 62 312 3.5 12.2 0.00 0.00 0.00 40 1015.1
20260503210314 62 319 0.9 12.2 0.00 0.00 0.00 38 1015.1
20260503210224 62 308 0.9 12.2 0.00 0.00 0.00 38 1015.1
20260503210040 62 304 3.5 12.2 0.00 0.00 0.00 41 1015.1
20260503205940 62 323 1.7 12.2 0.00 0.00 0.00 44 1015.1
20260503205838 62 326 4.3 12.2 0.00 0.00 0.00 43 1015.3
20260503205741 62 325 7.0 12.2 0.00 0.00 0.00 42 1015.3
20260503205640 62 322 6.1 10.4 0.00 0.00 0.00 42 1015.3
20260503205538 62 318 5.2 9.6 0.00 0.00 0.00 41 1015.3
20260503205436 62 285 4.3 9.6 0.00 0.00 0.00 40 1015.3
20260503205335 62 326 2.6 9.6 0.00 0.00 0.00 40 1015.3
20260503205233 62 329 0.9 9.6 0.00 0.00 0.00 39 1015.3
20260503205136 62 328 5.2 9.6 0.00 0.00 0.00 40 1015.3
20260503205033 62 313 2.6 9.6 0.00 0.00 0.00 41 1015.3
20260503204932 62 316 4.3 9.6 0.00 0.00 0.00 41 1015.3
20260503204831 62 335 6.1 9.6 0.00 0.00 0.00 44 1015.3
20260503204743 62 311 3.5 7.0 0.00 0.00 0.00 44 1015.3
20260503204652 62 295 2.6 7.0 0.00 0.00 0.00 44 1015.3
20260503204551 62 336 1.7 7.0 0.00 0.00 0.00 43 1015.3
20260503204428 62 326 2.6 9.6 0.00 0.00 0.00 44 1015.3
20260503204351 62 332 6.1 14.8 0.00 0.00 0.00 43 1015.5
20260503204228 62 322 4.3 14.8 0.00 0.00 0.00 42 1015.5
20260503204127 62 330 0.9 14.8 0.00 0.00 0.00 42 1015.5
20260503204046 62 305 5.2 14.8 0.00 0.00 0.00 41 1015.5
20260503203943 62 329 2.6 14.8 0.00 0.00 0.00 42 1015.5
20260503203841 62 308 1.7 14.8 0.00 0.00 0.00 41 1015.5
20260503203740 62 287 3.5 14.8 0.00 0.00 0.00 41 1015.5
20260503203638 62 305 6.1 14.8 0.00 0.00 0.00 44 1015.5
20260503203540 62 305 7.8 14.8 0.00 0.00 0.00 43 1015.5
20260503203438 62 277 7.0 14.8 0.00 0.00 0.00 41 1015.5
20260503203339 62 318 4.3 13.9 0.00 0.00 0.00 41 1015.5
20260503203259 62 332 3.5 13.9 0.00 0.00 0.00 41 1015.5
20260503203229 62 323 3.5 13.9 0.00 0.00 0.00 43 1015.5
20260503203105 62 322 5.2 13.9 0.00 0.00 0.00 41 1015.5
20260503202942 62 311 4.3 13.9 0.00 0.00 0.00 44 1015.5
20260503202841 62 319 6.1 13.9 0.00 0.00 0.00 44 1015.9
20260503202802 62 296 3.5 13.9 0.00 0.00 0.00 42 1015.9
20260503202621 62 306 5.2 13.9 0.00 0.00 0.00 41 1015.9
20260503202543 62 309 3.5 13.9 0.00 0.00 0.00 43 1015.9
20260503202501 62 318 3.5 9.6 0.00 0.00 0.00 41 1015.9
20260503202337 62 299 2.6 9.6 0.00 0.00 0.00 41 1015.9
20260503202235 62 320 2.6 10.4 0.00 0.00 0.00 41 1015.9
20260503202134 62 335 6.1 10.4 0.00 0.00 0.00 41 1015.9
20260503202032 62 332 4.3 10.4 0.00 0.00 0.00 41 1015.9
20260503201935 62 318 7.0 10.4 0.00 0.00 0.00 44 1015.9
20260503201833 62 305 6.1 10.4 0.00 0.00 0.00 43 1015.9
20260503201752 62 302 5.2 10.4 0.00 0.00 0.00 44 1015.9
20260503201722 62 318 3.5 10.4 0.00 0.00 0.00 45 1015.9
20260503201542 61 322 2.6 10.4 0.00 0.00 0.00 46 1015.9
20260503201441 61 325 7.0 10.4 0.00 0.00 0.00 45 1015.9
20260503201400 61 330 6.1 10.4 0.00 0.00 0.00 44 1016.1
20260503201237 61 288 1.7 9.6 0.00 0.00 0.00 43 1016.1
20260503201138 61 312 0.9 13.0 0.00 0.00 0.00 42 1016.1
20260503201040 61 330 1.7 13.0 0.00 0.00 0.00 42 1016.1
20260503200938 61 318 0.0 13.0 0.00 0.00 0.00 43 1016.1
20260503200835 61 291 1.7 13.0 0.00 0.00 0.00 46 1016.1
20260503200733 61 322 2.6 13.0 0.00 0.00 0.00 46 1016.1
20260503200632 61 315 2.6 13.0 0.00 0.00 0.00 44 1016.1
20260503200531 61 315 0.9 13.0 0.00 0.00 0.00 47 1016.1
20260503200433 61 339 1.7 13.0 0.00 0.00 0.00 44 1016.1
20260503200331 61 326 6.1 13.0 0.00 0.00 0.00 46 1016.1
20260503200229 61 311 6.1 12.2 0.00 0.00 0.00 44 1016.1
20260503200159 61 318 2.6 9.6 0.00 0.00 0.00 44 1016.1
20260503200036 61 329 3.5 11.3 0.00 0.00 0.00 44 1016.1
20260503195934 61 318 2.6 11.3 0.00 0.00 0.00 43 1016.1
20260503195833 61 328 1.7 11.3 0.00 0.00 0.00 42 1016.3
20260503195754 61 323 2.6 11.3 0.00 0.00 0.00 41 1016.3
20260503195631 61 333 7.8 11.3 0.00 0.00 0.00 44 1016.3
20260503195549 61 325 5.2 11.3 0.00 0.00 0.00 44 1016.3
20260503195427 61 323 4.3 11.3 0.00 0.00 0.00 45 1016.3
20260503195326 61 302 3.5 11.3 0.00 0.00 0.00 45 1016.3
20260503195244 61 305 3.5 11.3 0.00 0.00 0.00 47 1016.3
20260503195142 61 313 3.5 11.3 0.00 0.00 0.00 47 1016.3
20260503195026 61 316 7.8 11.3 0.00 0.00 0.00 46 1016.3
20260503194943 61 299 7.8 11.3 0.00 0.00 0.00 48 1016.3
20260503194842 61 316 8.7 11.3 0.00 0.00 0.00 47 1016.3
20260503194741 61 308 6.1 10.4 0.00 0.00 0.00 46 1016.3
20260503194710 61 250 5.2 10.4 0.00 0.00 0.00 45 1016.3
20260503194528 61 308 3.5 9.6 0.00 0.00 0.00 45 1016.3
20260503194425 61 251 1.7 13.9 0.00 0.00 0.00 45 1016.3
20260503194325 61 251 3.5 13.9 0.00 0.00 0.00 46 1016.6
20260503194228 61 305 5.2 13.9 0.00 0.00 0.00 45 1016.6
20260503194126 61 330 0.9 13.9 0.00 0.00 0.00 43 1016.6
20260503194024 61 316 0.0 13.9 0.00 0.00 0.00 43 1016.6
20260503193942 61 308 0.9 13.9 0.00 0.00 0.00 42 1016.6
20260503193841 62 299 3.5 13.9 0.00 0.00 0.00 45 1016.6
20260503193759 62 335 7.0 14.8 0.00 0.00 0.00 45 1016.6
20260503193635 62 312 7.8 14.8 0.00 0.00 0.00 47 1016.6
20260503193532 62 323 6.1 14.8 0.00 0.00 0.00 46 1016.6
20260503193435 62 295 5.2 14.8 0.00 0.00 0.00 45 1016.6
20260503193335 62 319 7.8 14.8 0.00 0.00 0.00 44 1016.6
20260503193244 62 323 0.9 14.8 0.00 0.00 0.00 43 1016.6
20260503193154 62 332 0.9 14.8 0.00 0.00 0.00 44 1016.6
20260503193030 62 332 2.6 14.8 0.00 0.00 0.00 46 1016.6
20260503192927 62 277 7.0 14.8 0.00 0.00 0.00 46 1016.6
20260503192846 61 302 8.7 14.8 0.00 0.00 0.00 45 1016.8
20260503192743 61 280 4.3 12.2 0.00 0.00 0.00 44 1016.8
20260503192646 61 226 4.3 12.2 0.00 0.00 0.00 46 1016.8
20260503192543 61 304 4.3 12.2 0.00 0.00 0.00 47 1016.8
20260503192441 61 326 4.3 12.2 0.00 0.00 0.00 47 1016.8
20260503192340 61 326 3.5 12.2 0.00 0.00 0.00 46 1016.8
20260503192258 61 330 4.3 12.2 0.00 0.00 0.00 45 1016.8
20260503192136 61 289 5.2 12.2 0.00 0.00 0.00 44 1016.8
20260503192035 61 277 6.1 12.2 0.00 0.00 0.00 47 1016.8
20260503191955 61 311 7.0 12.2 0.00 0.00 0.00 47 1016.8
20260503191836 61 301 6.1 13.9 0.00 0.00 0.00 45 1016.8
20260503191755 61 330 3.5 13.9 0.00 0.00 0.00 44 1016.8
20260503191725 61 311 3.5 13.9 0.00 0.00 0.00 44 1016.8
20260503191541 62 323 0.9 13.9 0.00 0.00 0.00 43 1016.8
20260503191440 62 313 1.7 13.9 0.00 0.00 0.00 44 1016.8
20260503191337 62 288 1.7 13.9 0.00 0.00 0.00 45 1016.9
20260503191236 62 330 3.5 13.9 0.00 0.00 0.00 44 1016.9
20260503191135 62 316 5.2 13.9 0.00 0.00 0.00 46 1016.9
20260503191038 62 322 7.0 13.9 0.00 0.00 0.00 46 1016.9
20260503190941 62 326 7.0 13.9 0.00 0.00 0.00 43 1016.9
20260503190838 62 308 3.5 9.6 0.00 0.00 0.00 41 1016.9
20260503190737 62 329 0.9 7.0 0.00 0.00 0.00 41 1016.9
20260503190635 62 323 1.7 7.8 0.00 0.00 0.00 42 1016.9
20260503190553 62 329 3.5 7.8 0.00 0.00 0.00 46 1016.9
20260503190430 62 285 3.5 7.8 0.00 0.00 0.00 42 1016.9
20260503190352 63 320 0.9 7.8 0.00 0.00 0.00 41 1016.9
20260503190240 63 326 5.2 7.8 0.00 0.00 0.00 45 1016.9
20260503190149 63 316 4.3 10.4 0.00 0.00 0.00 41 1016.9
20260503190046 63 342 2.6 10.4 0.00 0.00 0.00 42 1016.9
20260503185924 63 287 0.0 10.4 0.00 0.00 0.00 44 1016.9
20260503185843 63 322 1.7 10.4 0.00 0.00 0.00 44 1017.1
20260503185741 63 275 4.3 10.4 0.00 0.00 0.00 44 1017.1
20260503185702 63 325 2.6 10.4 0.00 0.00 0.00 43 1017.1
20260503185539 63 313 1.7 10.4 0.00 0.00 0.00 45 1017.1
20260503185441 63 268 4.3 10.4 0.00 0.00 0.00 45 1017.1
20260503185401 62 296 7.8 10.4 0.00 0.00 0.00 47 1017.1
20260503185238 62 272 7.0 10.4 0.00 0.00 0.00 46 1017.1
20260503185137 62 254 3.5 10.4 0.00 0.00 0.00 46 1017.1
20260503185034 62 282 1.7 10.4 0.00 0.00 0.00 45 1017.1
20260503184953 62 275 2.6 10.4 0.00 0.00 0.00 45 1017.1
20260503184850 62 330 2.6 10.4 0.00 0.00 0.00 46 1017.1
20260503184811 62 328 2.6 10.4 0.00 0.00 0.00 44 1017.1
20260503184719 62 270 4.3 10.4 0.00 0.00 0.00 46 1017.1
20260503184604 62 299 3.5 10.4 0.00 0.00 0.00 43 1017.1
20260503184441 62 294 3.5 10.4 0.00 0.00 0.00 43 1017.1
20260503184339 62 306 3.5 10.4 0.00 0.00 0.00 45 1017.2
20260503184237 62 272 4.3 10.4 0.00 0.00 0.00 45 1017.2
20260503184135 62 315 4.3 11.3 0.00 0.00 0.00 42 1017.2
20260503184035 62 292 1.7 11.3 0.00 0.00 0.00 40 1017.2
20260503183933 62 311 3.5 11.3 0.00 0.00 0.00 40 1017.2
20260503183835 62 277 2.6 11.3 0.00 0.00 0.00 44 1017.2
20260503183733 62 274 5.2 11.3 0.00 0.00 0.00 44 1017.2
20260503183631 62 299 3.5 11.3 0.00 0.00 0.00 45 1017.2
20260503183530 62 271 1.7 11.3 0.00 0.00 0.00 44 1017.2
20260503183428 62 282 1.7 11.3 0.00 0.00 0.00 45 1017.2
20260503183329 62 282 3.5 11.3 0.00 0.00 0.00 45 1017.2
20260503183232 62 263 7.0 11.3 0.00 0.00 0.00 46 1017.2
20260503183203 62 272 7.0 11.3 0.00 0.00 0.00 45 1017.2
20260503183040 62 271 5.2 8.7 0.00 0.00 0.00 46 1017.2
20260503182937 61 316 3.5 7.0 0.00 0.00 0.00 47 1017.2
20260503182856 61 318 3.5 7.0 0.00 0.00 0.00 44 1017.4
20260503182755 61 322 1.7 7.0 0.00 0.00 0.00 43 1017.4
20260503182635 61 315 3.5 7.0 0.00 0.00 0.00 43 1017.4
20260503182533 61 322 2.6 7.0 0.00 0.00 0.00 41 1017.4
20260503182453 61 319 0.9 7.0 0.00 0.00 0.00 42 1017.4
20260503182334 61 325 0.9 8.7 0.00 0.00 0.00 42 1017.4
20260503182233 61 322 0.0 8.7 0.00 0.00 0.00 43 1017.4
20260503182131 61 298 0.0 8.7 0.00 0.00 0.00 44 1017.4
20260503182030 61 304 2.6 8.7 0.00 0.00 0.00 43 1017.4
20260503181928 61 322 5.2 8.7 0.00 0.00 0.00 42 1017.4
20260503181825 62 319 1.7 8.7 0.00 0.00 0.00 40 1017.4
20260503181740 62 312 0.9 8.7 0.00 0.00 0.00 40 1017.4
20260503181648 62 312 4.3 9.6 0.00 0.00 0.00 43 1017.4
20260503181545 62 272 4.3 9.6 0.00 0.00 0.00 44 1017.4
20260503181443 62 301 3.5 9.6 0.00 0.00 0.00 42 1017.4
20260503181341 62 325 3.5 9.6 0.00 0.00 0.00 40 1017.3
20260503181241 62 323 3.5 9.6 0.00 0.00 0.00 38 1017.3
20260503181139 62 309 2.6 9.6 0.00 0.00 0.00 44 1017.3
20260503181038 62 272 5.2 9.6 0.00 0.00 0.00 44 1017.3
20260503180957 62 281 5.2 9.6 0.00 0.00 0.00 42 1017.3
20260503180859 62 289 5.2 9.6 0.00 0.00 0.00 44 1017.3
20260503180737 62 328 3.5 9.6 0.00 0.00 0.00 42 1017.3
20260503180635 62 308 0.9 8.7 0.00 0.00 0.00 41 1017.3
20260503180534 62 330 0.9 8.7 0.00 0.00 0.00 43 1017.3
20260503180431 61 291 1.7 9.6 0.00 0.00 0.00 43 1017.3
20260503180330 61 292 2.6 9.6 0.00 0.00 0.00 43 1017.3
20260503180240 61 316 4.3 9.6 0.00 0.00 0.00 46 1017.3
20260503180153 61 277 5.2 9.6 0.00 0.00 0.00 45 1017.3
20260503180028 61 305 3.5 9.6 0.00 0.00 0.00 46 1017.3
20260503175927 61 330 3.5 9.6 0.00 0.00 0.00 44 1017.3
20260503175847 61 308 5.2 9.6 0.00 0.00 0.00 47 1017.6
20260503175724 61 311 2.6 9.6 0.00 0.00 0.00 47 1017.6
20260503175642 61 315 3.5 9.6 0.00 0.00 0.00 47 1017.6
20260503175540 61 328 4.3 9.6 0.00 0.00 0.00 44 1017.6
20260503175438 61 330 4.3 8.7 0.00 0.00 0.00 44 1017.6
20260503175340 60 277 0.0 7.0 0.00 0.00 0.00 43 1017.6
20260503175240 60 305 2.6 7.0 0.00 0.00 0.00 42 1017.6
20260503175137 60 325 1.7 7.0 0.00 0.00 0.00 41 1017.6
20260503175034 60 323 1.7 7.0 0.00 0.00 0.00 44 1017.6
20260503174932 60 330 0.9 7.0 0.00 0.00 0.00 43 1017.6
20260503174831 60 323 2.6 7.0 0.00 0.00 0.00 41 1017.6
20260503174749 61 330 5.2 7.0 0.00 0.00 0.00 39 1017.6
20260503174658 61 329 5.2 7.0 0.00 0.00 0.00 39 1017.6
20260503174538 61 325 4.3 7.0 0.00 0.00 0.00 41 1017.6
20260503174438 61 326 0.9 7.0 0.00 0.00 0.00 42 1017.6
20260503174355 61 301 1.7 7.0 0.00 0.00 0.00 40 1017.7
20260503174231 61 312 3.5 7.0 0.00 0.00 0.00 39 1017.7
20260503174131 61 320 0.9 7.0 0.00 0.00 0.00 43 1017.7
20260503174052 61 299 0.0 7.0 0.00 0.00 0.00 43 1017.7
20260503173929 61 299 1.7 7.0 0.00 0.00 0.00 44 1017.7
20260503173848 62 302 2.6 7.0 0.00 0.00 0.00 41 1017.7
20260503173730 62 315 2.6 7.0 0.00 0.00 0.00 41 1017.7
20260503173627 62 299 1.7 7.0 0.00 0.00 0.00 43 1017.7
20260503173546 62 295 0.9 7.0 0.00 0.00 0.00 43 1017.7
20260503173443 62 302 1.7 7.0 0.00 0.00 0.00 44 1017.7
20260503173402 62 292 4.3 7.0 0.00 0.00 0.00 44 1017.7
20260503173239 62 305 5.2 7.0 0.00 0.00 0.00 44 1017.7
20260503173209 62 296 3.5 8.7 0.00 0.00 0.00 44 1017.7
20260503173045 62 291 1.7 8.7 0.00 0.00 0.00 44 1017.7
20260503172942 62 280 1.7 8.7 0.00 0.00 0.00 42 1017.7
20260503172825 62 272 4.3 9.6 0.00 0.00 0.00 42 1017.9
20260503172743 62 264 1.7 9.6 0.00 0.00 0.00 39 1017.9
20260503172642 63 282 0.9 9.6 0.00 0.00 0.00 37 1017.9
20260503172541 63 267 1.7 9.6 0.00 0.00 0.00 41 1017.9
20260503172459 63 253 3.5 9.6 0.00 0.00 0.00 44 1017.9
20260503172337 63 287 5.2 9.6 0.00 0.00 0.00 42 1017.9
20260503172235 63 261 5.2 9.6 0.00 0.00 0.00 46 1017.9
20260503172153 63 296 5.2 9.6 0.00 0.00 0.00 42 1017.9
20260503172030 62 282 4.3 9.6 0.00 0.00 0.00 42 1017.9
20260503171932 62 299 0.0 6.1 0.00 0.00 0.00 41 1017.9
20260503171830 62 257 1.7 8.7 0.00 0.00 0.00 43 1017.9
20260503171741 62 284 2.6 8.7 0.00 0.00 0.00 42 1017.9
20260503171651 62 263 3.5 8.7 0.00 0.00 0.00 43 1017.9
20260503171527 62 270 4.3 10.4 0.00 0.00 0.00 43 1017.9
20260503171445 62 220 1.7 10.4 0.00 0.00 0.00 44 1017.9
20260503171342 62 188 0.9 10.4 0.00 0.00 0.00 44 1018.1
20260503171241 62 164 1.7 10.4 0.00 0.00 0.00 44 1018.1
20260503171144 62 320 3.5 10.4 0.00 0.00 0.00 45 1018.1
20260503171102 62 320 5.2 10.4 0.00 0.00 0.00 46 1018.1
20260503170940 61 298 6.1 10.4 0.00 0.00 0.00 46 1018.1
20260503170858 61 280 4.3 10.4 0.00 0.00 0.00 45 1018.1
20260503170736 61 226 6.1 10.4 0.00 0.00 0.00 45 1018.1
20260503170634 61 313 6.1 10.4 0.00 0.00 0.00 47 1018.1
20260503170532 61 295 3.5 7.8 0.00 0.00 0.00 47 1018.1
20260503170431 61 313 5.2 7.8 0.00 0.00 0.00 47 1018.1
20260503170333 61 322 3.5 7.8 0.00 0.00 0.00 47 1018.1
20260503170251 60 326 2.6 7.8 0.00 0.00 0.00 48 1018.1
20260503170201 60 251 1.7 7.8 0.00 0.00 0.00 47 1018.1
20260503160157 56 316 2.6 7.0 0.00 0.00 0.00 54 1018.4
20260503150935 53 236 3.5 7.0 0.00 0.00 0.00 60 1018.6
20260503150839 53 330 5.2 7.0 0.00 0.00 0.00 62 1018.6
20260503150737 53 332 2.6 6.1 0.00 0.00 0.00 62 1018.6
20260503150634 52 332 2.6 6.1 0.00 0.00 0.00 60 1018.6
20260503150531 52 360 2.6 7.0 0.00 0.00 0.00 62 1018.6
20260503150450 52 44 0.9 7.0 0.00 0.00 0.00 62 1018.6
20260503150327 52 10 1.7 8.7 0.00 0.00 0.00 60 1018.6
20260503150257 52 226 2.6 8.7 0.00 0.00 0.00 61 1018.6
20260503150147 52 69 1.7 8.7 0.00 0.00 0.00 61 1018.6
20260503140235 49 332 4.3 6.1 0.00 0.00 0.00 71 1018.5
20260503140146 49 318 3.5 6.1 0.00 0.00 0.00 71 1018.5
20260503131336 46 329 4.3 5.2 0.00 0.00 0.00 78 1018.1
20260503131255 46 68 3.5 5.2 0.00 0.00 0.00 80 1018.1
20260503131156 46 329 2.6 5.2 0.00 0.00 0.00 80 1018.1
20260503131034 46 223 1.7 5.2 0.00 0.00 0.00 80 1018.1
20260503130931 46 316 0.9 5.2 0.00 0.00 0.00 80 1018.1
20260503130831 46 222 0.9 5.2 0.00 0.00 0.00 80 1018.1
20260503130751 46 318 1.7 5.2 0.00 0.00 0.00 80 1018.1
20260503130628 46 332 1.7 5.2 0.00 0.00 0.00 80 1018.1
20260503130526 46 267 4.3 5.2 0.00 0.00 0.00 80 1018.1
20260503130428 46 200 2.6 5.2 0.00 0.00 0.00 80 1018.1
20260503130326 46 288 3.5 5.2 0.00 0.00 0.00 80 1018.1
20260503130237 46 323 4.3 5.2 0.00 0.00 0.00 80 1018.1
20260503130146 46 295 3.5 5.2 0.00 0.00 0.00 80 1018.1
20260503120143 44 333 6.1 9.6 0.00 0.00 0.00 86 1017.5
20260503110824 44 270 6.1 9.6 0.00 0.00 0.00 90 1016.7
20260503110742 44 308 7.0 9.6 0.00 0.00 0.00 90 1016.7
20260503110642 44 260 6.1 9.6 0.00 0.00 0.00 90 1016.7
20260503110541 44 333 5.2 9.6 0.00 0.00 0.00 90 1016.7
20260503110459 44 65 7.8 9.6 0.00 0.00 0.00 90 1016.7
20260503110336 44 219 6.1 9.6 0.00 0.00 0.00 90 1016.7
20260503110240 44 319 7.0 9.6 0.00 0.00 0.00 90 1016.7
20260503110210 44 199 6.1 9.6 0.00 0.00 0.00 90 1016.7
20260503100247 43 80 7.0 11.3 0.00 0.00 0.00 90 1016.5
20260503100218 43 100 7.8 11.3 0.00 0.00 0.00 90 1016.5
20260503090424 44 329 6.1 9.6 0.00 0.00 0.00 90 1016.3
20260503090343 44 326 6.1 9.6 0.00 0.00 0.00 90 1016.3
20260503090242 44 284 4.3 9.6 0.00 0.00 0.00 90 1016.3
20260503090152 44 333 3.5 9.6 0.00 0.00 0.00 90 1016.3
20260503081529 44 333 4.3 7.0 0.00 0.00 0.00 89 1016.1
20260503081426 44 333 4.3 7.0 0.00 0.00 0.00 89 1016.1
20260503081330 44 333 4.3 7.0 0.00 0.00 0.00 89 1015.8
20260503081229 44 335 5.2 7.0 0.00 0.00 0.00 89 1015.8
20260503081128 45 319 4.3 7.0 0.00 0.00 0.00 89 1015.8
20260503081025 45 335 2.6 7.0 0.00 0.00 0.00 89 1015.8
20260503080924 45 322 3.5 7.0 0.00 0.00 0.00 88 1015.8
20260503080843 45 315 3.5 7.0 0.00 0.00 0.00 88 1015.8
20260503080740 45 335 5.2 7.0 0.00 0.00 0.00 88 1015.8
20260503080658 45 326 4.3 7.0 0.00 0.00 0.00 88 1015.8
20260503080541 45 171 5.2 7.8 0.00 0.00 0.00 88 1015.8
20260503080459 45 328 6.1 7.8 0.00 0.00 0.00 88 1015.8
20260503080356 45 184 5.2 8.7 0.00 0.00 0.00 88 1015.8
20260503080233 45 333 3.5 8.7 0.00 0.00 0.00 88 1015.8
20260503080203 45 171 4.3 8.7 0.00 0.00 0.00 88 1015.8
20260503072941 45 332 4.3 9.6 0.00 0.00 0.00 87 1015.6
20260503072840 45 320 6.1 9.6 0.00 0.00 0.00 87 1015.5
20260503072741 45 328 6.1 9.6 0.00 0.00 0.00 87 1015.5
20260503072640 45 333 6.1 8.7 0.00 0.00 0.00 87 1015.5
20260503072541 45 329 5.2 8.7 0.00 0.00 0.00 87 1015.5
20260503072439 45 333 4.3 8.7 0.00 0.00 0.00 87 1015.5
20260503072357 45 196 3.5 8.7 0.00 0.00 0.00 87 1015.5
20260503072235 45 332 5.2 8.7 0.00 0.00 0.00 87 1015.5
20260503072154 45 312 5.2 8.7 0.00 0.00 0.00 87 1015.5
20260503072030 45 333 6.1 8.7 0.00 0.00 0.00 87 1015.5
20260503071930 45 247 6.1 8.7 0.00 0.00 0.00 87 1015.5
20260503071836 45 232 5.2 8.7 0.00 0.00 0.00 87 1015.5
20260503071733 45 277 3.5 8.7 0.00 0.00 0.00 86 1015.5
20260503071704 45 323 5.2 8.7 0.00 0.00 0.00 86 1015.5
20260503071543 45 329 6.1 8.7 0.00 0.00 0.00 86 1015.5
20260503071441 45 333 7.0 8.7 0.00 0.00 0.00 86 1015.5
20260503071339 45 316 6.1 8.7 0.00 0.00 0.00 86 1015.5
20260503071237 45 191 5.2 8.7 0.00 0.00 0.00 86 1015.5
20260503071200 45 330 4.3 8.7 0.00 0.00 0.00 86 1015.5
20260503071041 45 312 5.2 8.7 0.00 0.00 0.00 86 1015.5
20260503070939 45 104 6.1 9.6 0.00 0.00 0.00 86 1015.5
20260503070837 45 175 6.1 9.6 0.00 0.00 0.00 86 1015.5
20260503070756 45 311 5.2 9.6 0.00 0.00 0.00 86 1015.5
20260503070632 45 220 6.1 10.4 0.00 0.00 0.00 86 1015.5
20260503070531 45 315 3.5 10.4 0.00 0.00 0.00 86 1015.5
20260503070430 45 229 4.3 10.4 0.00 0.00 0.00 86 1015.5
20260503070333 45 326 6.1 10.4 0.00 0.00 0.00 86 1015.5
20260503070303 45 265 7.0 10.4 0.00 0.00 0.00 86 1015.5
20260503070151 45 274 6.1 10.4 0.00 0.00 0.00 85 1015.5
20260503060329 47 284 5.2 10.4 0.00 0.00 0.00 81 1015.1
20260503060244 47 304 4.3 10.4 0.00 0.00 0.00 81 1015.1
20260503060154 47 330 6.1 10.4 0.00 0.00 0.00 81 1015.1
20260503055127 47 325 7.0 10.4 0.00 0.00 0.00 80 1015.1
20260503055026 47 319 4.3 11.3 0.00 0.00 0.00 80 1015.1
20260503054924 47 330 5.2 11.3 0.00 0.00 0.00 80 1015.1
20260503054827 47 291 6.1 11.3 0.00 0.00 0.00 79 1015.1
20260503054726 47 227 5.2 11.3 0.00 0.00 0.00 79 1015.1
20260503054656 47 192 5.2 11.3 0.00 0.00 0.00 79 1015.1
20260503054534 47 333 7.0 11.3 0.00 0.00 0.00 79 1015.1
20260503054432 47 335 7.0 12.2 0.00 0.00 0.00 79 1015.1
20260503054330 47 280 6.1 12.2 0.00 0.00 0.00 79 1015.1
20260503054249 47 257 9.6 12.2 0.00 0.00 0.00 79 1015.1
20260503054206 47 240 7.8 12.2 0.00 0.00 0.00 79 1015.1
20260503054104 47 261 6.1 12.2 0.00 0.00 0.00 79 1015.1
20260503053943 47 282 6.1 12.2 0.00 0.00 0.00 79 1015.1
20260503053841 47 113 4.3 12.2 0.00 0.00 0.00 78 1015.1
20260503053739 47 227 7.8 12.2 0.00 0.00 0.00 78 1015.1
20260503053657 47 199 10.4 12.2 0.00 0.00 0.00 78 1015.1
20260503053555 47 280 9.6 12.2 0.00 0.00 0.00 78 1015.1
20260503053452 47 360 6.1 10.4 0.00 0.00 0.00 78 1015.1
20260503053351 47 312 6.1 10.4 0.00 0.00 0.00 77 1015.1
20260503053240 47 315 2.6 10.4 0.00 0.00 0.00 77 1015.1
20260503053149 47 302 3.5 10.4 0.00 0.00 0.00 77 1015.1
20260503053029 47 323 7.0 10.4 0.00 0.00 0.00 77 1015.1
20260503052928 47 271 6.1 9.6 0.00 0.00 0.00 77 1015.1
20260503052847 47 247 5.2 9.6 0.00 0.00 0.00 77 1015.0
20260503052725 47 254 6.1 9.6 0.00 0.00 0.00 77 1015.0
20260503052643 47 315 7.0 9.6 0.00 0.00 0.00 77 1015.0
20260503052601 47 239 6.1 9.6 0.00 0.00 0.00 77 1015.0
20260503052438 47 251 6.1 9.6 0.00 0.00 0.00 77 1015.0
20260503052336 48 250 6.1 9.6 0.00 0.00 0.00 77 1015.0
20260503052240 48 320 6.1 9.6 0.00 0.00 0.00 77 1015.0
20260503052138 48 326 4.3 9.6 0.00 0.00 0.00 77 1015.0
20260503052056 48 280 4.3 9.6 0.00 0.00 0.00 76 1015.0
20260503051934 48 90 6.1 9.6 0.00 0.00 0.00 76 1015.0
20260503051833 48 319 5.2 9.6 0.00 0.00 0.00 76 1015.0
20260503051732 48 288 5.2 9.6 0.00 0.00 0.00 76 1015.0
20260503051701 48 186 4.3 10.4 0.00 0.00 0.00 76 1015.0
20260503051538 48 152 3.5 10.4 0.00 0.00 0.00 76 1015.0
20260503051441 48 339 4.3 10.4 0.00 0.00 0.00 75 1015.0
20260503051339 48 332 4.3 10.4 0.00 0.00 0.00 75 1015.0
20260503051242 48 178 4.3 10.4 0.00 0.00 0.00 75 1015.0
20260503051159 48 236 4.3 10.4 0.00 0.00 0.00 75 1015.0
20260503051035 48 277 3.5 10.4 0.00 0.00 0.00 75 1015.0
20260503050934 48 299 4.3 11.3 0.00 0.00 0.00 75 1015.0
20260503050834 48 268 6.1 11.3 0.00 0.00 0.00 75 1015.0
20260503050735 48 223 5.2 11.3 0.00 0.00 0.00 75 1015.0
20260503050635 48 322 5.2 11.3 0.00 0.00 0.00 75 1015.0
20260503050531 48 254 7.0 11.3 0.00 0.00 0.00 75 1015.0
20260503050429 48 270 5.2 13.0 0.00 0.00 0.00 75 1015.0
20260503050327 48 268 6.1 13.0 0.00 0.00 0.00 75 1015.0
20260503050226 48 179 4.3 13.0 0.00 0.00 0.00 75 1015.0
20260503050158 48 162 6.1 13.0 0.00 0.00 0.00 75 1015.0
20260503050038 48 267 6.1 13.0 0.00 0.00 0.00 74 1015.0
20260503045938 48 316 7.0 13.0 0.00 0.00 0.00 74 1015.0
20260503045837 48 337 7.0 13.0 0.00 0.00 0.00 74 1015.0
20260503045734 48 340 9.6 13.0 0.00 0.00 0.00 74 1015.0
20260503045632 49 219 6.1 12.2 0.00 0.00 0.00 74 1015.0
20260503045531 49 333 4.3 12.2 0.00 0.00 0.00 74 1015.0
20260503045430 49 116 7.8 12.2 0.00 0.00 0.00 74 1015.0
20260503045352 49 120 6.1 12.2 0.00 0.00 0.00 74 1015.0
20260503045231 49 295 4.3 12.2 0.00 0.00 0.00 74 1015.0
20260503045129 49 209 7.8 12.2 0.00 0.00 0.00 74 1015.0
20260503045027 49 185 6.1 12.2 0.00 0.00 0.00 73 1015.0
20260503044946 49 311 8.7 12.2 0.00 0.00 0.00 73 1015.0
20260503044843 49 333 7.8 11.3 0.00 0.00 0.00 73 1015.0
20260503044741 49 294 7.0 10.4 0.00 0.00 0.00 73 1015.0
20260503044710 49 162 7.0 10.4 0.00 0.00 0.00 73 1015.0
20260503044546 49 182 6.1 10.4 0.00 0.00 0.00 73 1015.0
20260503044444 49 316 5.2 10.4 0.00 0.00 0.00 73 1015.0
20260503044341 49 347 7.0 10.4 0.00 0.00 0.00 73 1014.9
20260503044238 49 323 7.0 10.4 0.00 0.00 0.00 73 1014.9
20260503044136 49 330 7.0 10.4 0.00 0.00 0.00 72 1014.9
20260503044034 49 213 6.1 10.4 0.00 0.00 0.00 72 1014.9
20260503043955 49 171 3.5 10.4 0.00 0.00 0.00 72 1014.9
20260503043831 49 304 6.1 10.4 0.00 0.00 0.00 72 1014.9
20260503043730 49 258 5.2 10.4 0.00 0.00 0.00 72 1014.9
20260503043648 49 227 4.3 10.4 0.00 0.00 0.00 72 1014.9
20260503043553 49 217 7.8 10.4 0.00 0.00 0.00 72 1014.9
20260503043430 49 313 7.0 10.4 0.00 0.00 0.00 72 1014.9
20260503043329 49 270 7.0 10.4 0.00 0.00 0.00 72 1014.9
20260503043238 49 333 3.5 10.4 0.00 0.00 0.00 72 1014.9
20260503043148 49 240 4.3 10.4 0.00 0.00 0.00 72 1014.9
20260503043026 49 144 7.0 10.4 0.00 0.00 0.00 72 1014.9
20260503042924 49 251 4.3 10.4 0.00 0.00 0.00 72 1014.9
20260503042843 49 294 6.1 10.4 0.00 0.00 0.00 72 1014.8
20260503042804 49 267 7.0 11.3 0.00 0.00 0.00 71 1014.8
20260503042641 49 304 7.0 12.2 0.00 0.00 0.00 71 1014.8
20260503042540 49 330 6.1 12.2 0.00 0.00 0.00 71 1014.8
20260503042440 49 174 4.3 12.2 0.00 0.00 0.00 71 1014.8
20260503042338 49 304 5.2 12.2 0.00 0.00 0.00 71 1014.8
20260503042257 49 257 6.1 12.2 0.00 0.00 0.00 71 1014.8
20260503042133 49 312 6.1 12.2 0.00 0.00 0.00 71 1014.8
20260503042035 49 333 6.1 12.2 0.00 0.00 0.00 71 1014.8
20260503041934 49 332 6.1 12.2 0.00 0.00 0.00 71 1014.8
20260503041831 49 333 8.7 12.2 0.00 0.00 0.00 71 1014.8
20260503041730 49 256 8.7 11.3 0.00 0.00 0.00 71 1014.8
20260503041700 49 168 6.1 11.3 0.00 0.00 0.00 71 1014.8
20260503041538 50 275 4.3 11.3 0.00 0.00 0.00 70 1014.8